1517612400.52,31134,5.19,72046.3,-9.85,-10.75,-10.75,0,*50
1517612401.77,31135,5.19,72040.5,-9.83,-10.85,-10.71,0,*5C
1517612403.03,31136,5.19,72044.0,-9.85,-10.75,-10.75,0,*52
1517612404.31,31137,5.19,72044.5,-9.87,-10.75,-10.75,0,*51
1517612405.57,31138,5.19,72044.8,-9.85,-10.75,-10.75,0,*5C
1517612406.85,31139,5.19,72044.5,-9.83,-10.79,-10.79,0,*5B
1517612408.07,31140,5.19,72042.5,-9.87,-10.85,-10.85,0,*51
1517612409.27,31141,5.19,72042.0,-9.85,-10.85,-10.85,0,*52
1517612410.55,31142,5.19,72048.5,-9.87,-10.75,-10.75,0,*53
1517612411.84,31143,5.19,72046.5,-9.87,-10.75,-10.75,0,*52
1517612413.1,31144,5.19,72044.0,-9.85,-10.75,-10.75,0,*57
1517612414.36,31145,5.19,72044.5,-9.85,-10.75,-10.75,0,*56
1517612415.59,31146,5.19,72046.8,-9.85,-10.85,-10.75,0,*5A
1517612416.82,31147,5.25,72048.3,-9.85,-10.85,-10.75,0,*5B
1517612418.04,31148,5.19,72046.8,-9.87,-10.85,-10.85,0,*59
1517612419.24,31149,5.19,72046.0,-9.85,-10.85,-10.85,0,*5A
1517612420.46,31150,5.19,72044.5,-9.87,-10.85,-10.85,0,*50
1517612421.7,31151,5.25,72048.8,-9.85,-10.85,-10.75,0,*5C
1517612422.9,31152,5.19,72046.0,-9.85,-10.85,-10.85,0,*50
1517612424.12,31153,5.19,72046.3,-9.87,-10.85,-10.85,0,*53
1517612425.34,31154,5.19,72044.8,-9.85,-10.75,-10.85,0,*59
1517612426.55,31155,5.19,72044.0,-9.85,-10.85,-10.89,0,*5B
1517612427.75,31156,5.19,72046.5,-9.85,-10.89,-10.85,0,*58
1517612428.95,31157,5.19,72044.0,-9.85,-10.85,-10.85,0,*55
1517612430.23,31158,5.19,72046.5,-9.87,-10.75,-10.75,0,*58
1517612431.43,31159,5.19,72046.8,-9.85,-10.85,-10.85,0,*5B
1517612432.63,31160,5.25,72050.5,-9.85,-10.85,-10.85,0,*51
1517612433.84,31161,5.25,72050.5,-9.85,-10.85,-10.97,0,*53
1517612435.06,31162,5.25,72048.8,-9.87,-10.85,-10.89,0,*5D
1517612436.29,31163,5.25,72050.8,-9.87,-10.89,-10.89,0,*50
1517612437.52,31164,5.19,72044.3,-9.87,-10.89,-10.85,0,*5B
1517612438.77,31165,5.19,72050.0,-9.87,-10.75,-10.89,0,*55
1517612439.99,31166,5.19,72046.5,-9.87,-10.85,-10.85,0,*55
1517612441.22,31167,5.19,72044.8,-9.87,-10.85,-10.85,0,*54
1517612442.44,31168,5.25,72050.5,-9.87,-10.85,-10.85,0,*5B
1517612443.69,31169,5.19,72046.0,-9.87,-10.85,-10.75,0,*55
1517612444.95,31170,5.19,72046.5,-9.87,-10.85,-10.75,0,*5D
1517612446.15,31171,5.19,72050.5,-9.85,-10.85,-10.85,0,*51
1517612447.4,31172,5.19,72046.8,-9.87,-10.89,-10.75,0,*53
1517612448.63,31173,5.19,72050.0,-9.87,-10.89,-10.85,0,*5D
1517612449.85,31174,5.19,72050.3,-9.87,-10.85,-10.85,0,*56
1517612451.07,31175,5.19,72048.5,-9.87,-10.85,-10.85,0,*57
1517612452.29,31176,5.19,72044.5,-9.87,-10.85,-10.85,0,*54
1517612453.52,31177,5.19,72044.5,-9.87,-10.85,-10.89,0,*59
1517612454.75,31178,5.19,72050.0,-9.87,-10.89,-10.89,0,*5A
1517612455.97,31179,5.19,72050.8,-9.87,-10.89,-10.85,0,*57
1517612457.2,31180,5.19,72046.3,-9.87,-10.85,-10.89,0,*51
1517612458.45,31181,5.19,72046.5,-9.87,-10.75,-10.89,0,*5F
1517612459.68,31182,5.25,72048.3,-9.87,-10.85,-10.89,0,*53
1517612460.91,31183,5.19,72050.5,-9.87,-10.89,-10.89,0,*5E
1517612462.14,31184,5.19,72050.0,-9.87,-10.89,-10.89,0,*59
1517612463.37,31185,5.19,72048.8,-9.87,-10.89,-10.97,0,*57
1517612464.61,31186,5.19,72048.0,-9.87,-10.85,-10.97,0,*58
1517612465.83,31187,5.19,72048.3,-9.87,-10.85,-10.85,0,*5A
1517612467.05,31188,5.25,72052.0,-9.87,-10.85,-10.85,0,*55
1517612468.26,31189,5.25,72048.5,-9.89,-10.89,-10.89,0,*5A
1517612469.46,31190,5.19,72044.0,-9.89,-10.93,-10.89,0,*59
1517612470.67,31191,5.25,72052.0,-9.89,-10.93,-10.89,0,*58
1517612471.88,31192,5.19,72048.5,-9.89,-10.89,-10.89,0,*50
1517612473.09,31193,5.25,72048.8,-9.89,-11.01,-10.89,0,*50
1517612474.3,31194,5.19,72048.3,-9.89,-10.93,-10.93,0,*56
1517612475.51,31195,5.19,72046.0,-9.89,-10.89,-10.93,0,*5C
1517612476.71,31196,5.19,72046.8,-9.89,-10.89,-10.93,0,*5F
1517612477.95,31197,5.19,72050.3,-9.89,-10.93,-10.79,0,*51
1517612479.16,31198,5.19,72046.3,-9.89,-11.01,-10.89,0,*5B
1517612480.37,31199,5.19,72046.8,-9.89,-10.93,-10.93,0,*5B
1517612481.58,31200,5.19,72050.8,-9.89,-10.93,-10.89,0,*53
1517612482.79,31201,5.19,72048.8,-9.89,-10.93,-10.89,0,*52
1517612484.07,31202,5.19,72050.0,-9.91,-10.79,-10.79,0,*53
1517612485.31,31203,5.19,72046.8,-9.89,-10.79,-10.89,0,*54
1517612486.54,31204,5.25,72050.8,-9.89,-10.89,-10.79,0,*53
1517612487.77,31205,5.19,72048.0,-9.89,-10.89,-10.79,0,*52
1517612488.98,31206,5.19,72044.5,-9.89,-10.89,-10.89,0,*5E
1517612490.24,31207,5.19,72044.5,-9.89,-10.79,-10.79,0,*5F
1517612491.52,31208,5.19,72046.0,-9.91,-10.79,-10.79,0,*59
1517612492.75,31209,5.19,72042.8,-9.91,-10.89,-10.89,0,*58
1517612493.98,31210,5.19,72044.0,-9.89,-10.89,-10.79,0,*56
1517612495.19,31211,5.25,72046.3,-9.89,-10.89,-10.89,0,*58
1517612496.42,31212,5.19,72044.3,-9.89,-10.89,-10.79,0,*54
1517612497.68,31213,5.25,72044.8,-9.91,-10.79,-10.89,0,*5C
1517612498.91,31214,5.19,72040.8,-9.89,-10.89,-10.79,0,*52
1517612500.12,31215,5.19,72044.0,-9.89,-10.89,-10.89,0,*5C
1517612501.35,31216,5.25,72044.0,-9.91,-10.89,-10.89,0,*56
1517612502.61,31217,5.25,72044.8,-9.91,-10.79,-10.89,0,*58
1517612503.87,31218,5.19,72046.3,-9.89,-10.79,-10.79,0,*51
1517612505.13,31219,5.25,72046.5,-9.91,-10.79,-10.89,0,*56
1517612506.33,31220,5.25,72044.5,-9.89,-10.89,-10.89,0,*5A
1517612507.56,31221,5.19,72044.3,-9.89,-10.79,-10.89,0,*54
1517612508.77,31222,5.25,72046.8,-9.89,-10.89,-10.89,0,*58
1517612510.03,31223,5.25,72044.8,-9.91,-10.79,-10.89,0,*5F
1517612511.23,31224,5.25,72044.5,-9.89,-10.89,-10.89,0,*5E
1517612512.46,31225,5.19,72044.8,-9.89,-10.89,-10.79,0,*50
1517612513.72,31226,5.25,72044.5,-9.91,-10.89,-10.79,0,*5A
1517612514.93,31227,5.25,72046.3,-9.89,-10.89,-10.89,0,*5D
1517612516.16,31228,5.25,72044.8,-9.89,-10.79,-10.89,0,*5D
1517612517.37,31229,5.25,72046.8,-9.89,-10.89,-10.89,0,*53
1517612518.6,31230,5.25,72048.8,-9.91,-10.89,-10.89,0,*52
1517612519.83,31231,5.25,72044.8,-9.91,-10.89,-10.89,0,*53
1517612521.09,31232,5.25,72050.0,-9.91,-10.79,-10.89,0,*5F
1517612522.32,31233,5.25,72048.3,-9.91,-10.89,-10.89,0,*51
1517612523.55,31234,5.19,72042.8,-9.91,-10.89,-10.89,0,*56
1517612524.81,31235,5.25,72048.5,-9.91,-10.89,-10.79,0,*58
1517612526.07,31236,5.19,72044.5,-9.91,-10.89,-10.79,0,*5B
1517612527.33,31237,5.19,72042.8,-9.91,-10.89,-10.79,0,*5A
1517612528.56,31238,5.25,72044.8,-9.91,-10.89,-10.89,0,*5A
1517612529.82,31239,5.25,72044.5,-9.89,-10.79,-10.79,0,*52
1517612531.05,31240,5.25,72046.5,-9.89,-10.79,-10.89,0,*53
1517612532.31,31241,5.25,72048.3,-9.91,-10.89,-10.79,0,*5B
1517612533.59,31242,5.19,72044.8,-9.91,-10.79,-10.79,0,*57
1517612534.88,31243,5.25,72046.3,-9.91,-10.79,-10.79,0,*56
1517612536.14,31244,5.25,72050.8,-9.91,-10.89,-10.79,0,*5E
1517612537.42,31245,5.25,72048.3,-9.91,-10.79,-10.79,0,*50
1517612538.68,31246,5.25,72048.8,-9.91,-10.79,-10.89,0,*5C
1517612539.94,31247,5.25,72044.5,-9.91,-10.89,-10.79,0,*5D
1517612541.17,31248,5.25,72048.3,-9.89,-10.79,-10.89,0,*5B
1517612542.43,31249,5.19,72044.5,-9.91,-10.79,-10.89,0,*53
1517612543.65,31250,5.25,72044.8,-9.95,-10.93,-10.85,0,*57
1517612544.91,31251,5.25,72048.8,-9.91,-10.89,-10.79,0,*5A
1517612546.14,31252,5.25,72048.5,-9.91,-10.89,-10.89,0,*56
1517612547.37,31253,5.25,72046.5,-9.95,-10.93,-10.85,0,*54
1517612548.6,31254,5.25,72046.3,-9.95,-10.93,-10.93,0,*54
1517612549.84,31255,5.25,72050.5,-9.95,-10.93,-10.93,0,*55
1517612551.1,31256,5.25,72046.3,-9.91,-10.89,-10.79,0,*5D
1517612552.33,31257,5.25,72048.8,-9.91,-10.89,-10.89,0,*53
1517612553.61,31258,5.19,72044.0,-9.91,-10.79,-10.79,0,*5C
1517612554.84,31259,5.25,72048.3,-9.91,-10.89,-10.89,0,*5D
1517612556.1,31260,5.19,72046.8,-9.91,-10.79,-10.89,0,*58
1517612557.36,31261,5.19,72046.5,-9.91,-10.89,-10.79,0,*59
1517612558.59,31262,5.25,72048.0,-9.91,-10.89,-10.89,0,*55
1517612559.82,31263,5.25,72048.0,-9.95,-10.85,-10.93,0,*57
1517612561.06,31264,5.25,72048.5,-9.95,-10.93,-10.93,0,*57
1517612562.28,31265,5.25,72048.5,-9.95,-10.93,-10.85,0,*51
1517612563.52,31266,5.25,72050.0,-9.95,-10.93,-10.93,0,*55
1517612564.75,31267,5.25,72046.3,-9.95,-10.93,-10.93,0,*54
1517612566.01,31268,5.25,72048.3,-9.91,-10.79,-10.89,0,*50
1517612567.27,31269,5.19,72044.5,-9.91,-10.89,-10.79,0,*51
1517612568.55,31270,5.25,72046.5,-9.91,-10.79,-10.79,0,*56
1517612569.81,31271,5.25,72044.5,-9.91,-10.79,-10.89,0,*58
1517612571.04,31272,5.25,72046.8,-9.95,-10.85,-10.93,0,*57
1517612572.27,31273,5.25,72046.3,-9.95,-10.85,-10.93,0,*56
1517612573.5,31274,5.25,72046.0,-9.95,-10.93,-10.93,0,*56
1517612574.73,31275,5.25,72046.5,-9.95,-10.93,-10.85,0,*50
1517612575.96,31276,5.25,72044.0,-9.95,-10.93,-10.93,0,*54
1517612577.2,31277,5.25,72044.8,-9.95,-10.93,-10.93,0,*55
1517612578.4,31278,5.25,72044.5,-9.97,-10.93,-10.85,0,*5F
1517612579.63,31279,5.25,72046.3,-9.95,-10.93,-10.85,0,*5C
1517612580.83,31280,5.25,72046.5,-9.97,-10.85,-10.85,0,*5F
1517612582.03,31281,5.25,72046.5,-9.97,-10.85,-10.85,0,*5E
1517612583.26,31282,5.25,72046.8,-9.95,-10.93,-10.85,0,*58
1517612584.49,31283,5.25,72046.5,-9.95,-10.93,-10.93,0,*5E
1517612585.72,31284,5.25,72046.3,-9.95,-10.85,-10.85,0,*59
1517612586.92,31285,5.25,72046.8,-9.97,-10.85,-10.85,0,*5A
1517612588.15,31286,5.25,72044.5,-9.95,-10.85,-10.93,0,*5C
1517612589.37,31287,5.25,72048.0,-9.95,-10.85,-10.85,0,*5A
1517612590.6,31288,5.25,72050.3,-9.95,-10.85,-10.93,0,*52
1517612591.83,31289,5.25,72046.5,-9.95,-10.85,-10.93,0,*53
1517612593.09,31290,5.25,72050.0,-9.91,-10.89,-10.79,0,*57
1517612594.32,31291,5.25,72048.5,-9.91,-10.89,-10.89,0,*59
1517612595.54,31292,5.19,72042.5,-9.95,-10.85,-10.85,0,*5E
1517612596.77,31293,5.19,72040.0,-9.95,-10.85,-10.93,0,*58
1517612598.0,31294,5.25,72046.8,-9.95,-10.85,-10.85,0,*58
1517612599.2,31295,5.25,72048.0,-9.97,-10.93,-10.85,0,*5C
1517612600.43,31296,5.25,72046.0,-9.95,-10.85,-10.85,0,*5A
1517612601.63,31297,5.19,72040.5,-9.97,-10.85,-10.85,0,*59
1517612602.83,31298,5.25,72044.0,-9.97,-10.93,-10.85,0,*51
1517612604.07,31299,5.25,72040.0,-9.95,-10.93,-10.93,0,*55
1517612605.29,31300,5.25,72040.3,-9.95,-10.93,-10.85,0,*53
1517612606.5,31301,5.25,72046.8,-9.97,-10.85,-10.85,0,*57
1517612607.71,31302,5.25,72044.5,-9.97,-10.93,-10.93,0,*54
1517612608.92,31303,5.25,72044.8,-9.97,-10.93,-10.85,0,*52
1517612610.12,31304,5.25,72044.8,-9.97,-10.85,-10.93,0,*55
1517612611.34,31305,5.25,72044.3,-9.97,-10.93,-10.93,0,*53
1517612612.57,31306,5.25,72046.0,-9.95,-10.93,-10.93,0,*52
1517612613.81,31307,5.25,72048.0,-9.95,-10.93,-10.93,0,*53
1517612615.02,31308,5.25,72050.0,-9.97,-10.93,-10.93,0,*5E
1517612616.24,31309,5.19,72046.5,-9.95,-10.93,-10.85,0,*5A
1517612617.45,31310,5.25,72044.3,-9.97,-10.93,-10.85,0,*50
1517612618.66,31311,5.25,72046.3,-9.97,-10.85,-10.93,0,*51
1517612619.89,31312,5.25,72044.3,-9.95,-10.93,-10.93,0,*57
1517612621.13,31313,5.25,72042.8,-9.95,-10.93,-10.93,0,*56
1517612622.35,31314,5.25,72042.3,-9.95,-10.93,-10.85,0,*56
1517612623.57,31315,5.25,72046.3,-9.97,-10.93,-10.93,0,*52
1517612624.78,31316,5.25,72042.0,-9.97,-10.93,-10.93,0,*51
1517612625.98,31317,5.25,72046.0,-9.97,-10.85,-10.85,0,*50
1517612627.19,31318,5.25,72042.5,-9.97,-10.93,-10.93,0,*5F
1517612628.42,31319,5.25,72044.8,-9.95,-10.93,-10.85,0,*5B
1517612629.63,31320,5.25,72044.8,-9.97,-10.93,-10.85,0,*53
1517612630.86,31321,5.25,72044.5,-9.95,-10.85,-10.93,0,*50
1517612632.06,31322,5.25,72046.3,-9.97,-10.85,-10.85,0,*56
1517612633.27,31323,5.25,72044.5,-9.97,-10.93,-10.93,0,*57
1517612634.48,31324,5.25,72050.0,-9.97,-10.93,-10.85,0,*57
1517612635.68,31325,5.25,72042.5,-9.97,-10.85,-10.85,0,*51
1517612636.91,31326,5.25,72046.0,-9.95,-10.85,-10.93,0,*57
1517612638.14,31327,5.25,72042.8,-9.95,-10.85,-10.93,0,*56
1517612639.37,31328,5.25,72044.8,-9.95,-10.85,-10.93,0,*59
1517612640.58,31329,5.25,72042.5,-9.97,-10.93,-10.93,0,*5D
1517612641.79,31330,5.25,72044.5,-9.97,-10.93,-10.85,0,*52
1517612643.0,31331,5.25,72044.3,-9.97,-10.93,-10.93,0,*54
1517612644.21,31332,5.25,72044.3,-9.97,-10.93,-10.93,0,*57
1517612645.42,31333,5.25,72044.5,-9.97,-10.93,-10.85,0,*51
1517612646.63,31334,5.25,72048.0,-9.97,-10.93,-10.93,0,*51
1517612647.84,31335,5.25,72046.0,-9.97,-10.85,-10.85,0,*50
1517612649.04,31336,5.25,72046.5,-9.97,-10.85,-10.85,0,*53
1517612650.24,31337,5.25,72048.3,-9.97,-10.85,-10.85,0,*52
1517612651.44,31338,5.25,72044.8,-9.97,-10.85,-10.85,0,*5D
1517612652.64,31339,5.25,72042.3,-9.97,-10.85,-10.85,0,*5C
1517612653.85,31340,5.25,72042.8,-9.97,-10.85,-10.85,0,*52
1517612655.06,31341,5.25,72044.0,-9.97,-10.93,-10.93,0,*53
1517612656.26,31342,5.25,72042.8,-9.97,-10.85,-10.85,0,*50
1517612657.48,31343,5.25,72044.3,-9.95,-10.85,-10.85,0,*53
1517612658.72,31344,5.25,72040.8,-9.99,-10.89,-10.97,0,*57
1517612659.92,31345,5.25,72046.5,-9.97,-10.85,-10.85,0,*57
1517612661.12,31346,5.25,72044.5,-9.97,-10.85,-10.85,0,*54
1517612662.33,31347,5.25,72040.3,-9.97,-10.85,-10.85,0,*55
1517612663.53,31348,5.25,72040.5,-9.97,-10.85,-10.85,0,*5A
1517612664.73,31349,5.25,72042.3,-9.97,-10.93,-10.85,0,*5C
1517612665.94,31350,5.25,72040.8,-9.97,-10.93,-10.85,0,*54
1517612667.14,31351,5.25,72044.5,-9.97,-10.85,-10.85,0,*52
1517612668.35,31352,5.25,72044.8,-9.97,-10.93,-10.85,0,*56
1517612669.55,31353,5.25,72042.0,-9.97,-10.85,-10.85,0,*50
1517612670.75,31354,5.25,72044.3,-9.97,-10.85,-10.85,0,*57
1517612671.96,31355,5.25,72046.0,-9.97,-10.93,-10.85,0,*51
1517612673.16,31356,5.25,72048.0,-9.97,-10.85,-10.85,0,*55
1517612674.36,31357,5.25,72044.5,-9.97,-10.85,-10.85,0,*54
1517612675.56,31358,5.25,72048.8,-9.97,-10.85,-10.85,0,*5B
1517612676.78,31359,5.25,72048.3,-9.97,-10.93,-10.93,0,*5A
1517612677.98,31360,5.25,72046.3,-9.97,-10.93,-10.85,0,*57
1517612679.19,31361,5.25,72046.8,-9.97,-10.85,-10.85,0,*51
1517612680.4,31362,5.25,72044.0,-9.97,-10.93,-10.93,0,*52
1517612681.61,31363,5.25,72048.3,-9.97,-10.93,-10.85,0,*54
1517612682.82,31364,5.25,72046.3,-9.97,-10.93,-10.93,0,*54
1517612684.03,31365,5.25,72048.8,-9.97,-10.89,-10.97,0,*5A
1517612685.24,31366,5.25,72046.5,-9.97,-10.93,-10.85,0,*51
1517612686.45,31367,5.25,72044.5,-9.97,-10.85,-10.93,0,*50
1517612687.65,31368,5.25,72046.8,-9.97,-10.93,-10.85,0,*5F
1517612688.85,31369,5.25,72044.5,-9.97,-10.85,-10.85,0,*59
1517612690.06,31370,5.25,72044.5,-9.97,-10.85,-10.85,0,*51
1517612691.29,31371,5.25,72046.0,-9.99,-10.89,-10.89,0,*5E
1517612692.49,31372,5.25,72046.8,-9.97,-10.85,-10.85,0,*53
1517612693.7,31373,5.25,72046.0,-9.97,-10.93,-10.85,0,*55
1517612694.9,31374,5.25,72046.3,-9.97,-10.93,-10.85,0,*52
1517612696.15,31375,5.25,72042.8,-9.99,-10.97,-10.97,0,*5A
1517612697.38,31376,5.25,72046.3,-9.99,-10.89,-10.89,0,*59
1517612698.61,31377,5.25,72042.5,-9.99,-10.89,-10.89,0,*58
1517612699.85,31378,5.25,72040.5,-9.99,-10.97,-10.97,0,*57
1517612701.09,31379,5.25,72042.8,-9.99,-10.97,-10.89,0,*59
1517612702.31,31380,5.25,72046.0,-10.01,-10.89,-10.89,0,*69
1517612703.54,31381,5.25,72044.0,-9.99,-10.89,-10.89,0,*51
1517612704.74,31382,5.25,72046.8,-9.97,-10.85,-10.85,0,*5C
1517612705.97,31383,5.25,72046.3,-9.99,-10.89,-10.89,0,*53
1517612707.21,31384,5.25,72046.5,-9.99,-10.97,-10.89,0,*5B
1517612708.44,31385,5.25,72046.5,-9.99,-10.89,-10.89,0,*55
1517612709.67,31386,5.25,72044.8,-9.99,-10.89,-10.89,0,*56
1517612710.91,31387,5.25,72046.3,-9.99,-10.89,-10.97,0,*58
1517612712.14,31388,5.25,72044.0,-9.99,-10.89,-10.89,0,*58
1517612713.36,31389,5.25,72040.8,-10.01,-10.89,-10.89,0,*60
1517612714.6,31390,5.25,72046.0,-9.99,-10.97,-10.97,0,*51
1517612715.84,31391,5.25,72046.5,-9.99,-10.97,-10.89,0,*5F
1517612717.07,31392,5.25,72048.3,-9.99,-10.89,-10.89,0,*53
1517612718.3,31393,5.25,72048.5,-9.99,-10.89,-10.89,0,*52
1517612719.53,31394,5.25,72046.3,-9.99,-10.89,-10.89,0,*55
1517612720.77,31395,5.25,72046.5,-9.99,-10.89,-10.89,0,*54
1517612722.0,31396,5.25,72046.3,-9.99,-10.89,-10.89,0,*57
1517612723.24,31397,5.25,72044.5,-9.99,-10.97,-10.97,0,*56
1517612724.46,31398,5.25,72044.5,-10.01,-10.89,-10.97,0,*6F
1517612725.67,31399,5.25,72044.8,-10.01,-10.89,-10.89,0,*61
1517612726.89,31400,5.25,72046.8,-10.01,-10.89,-10.89,0,*66
1517612728.12,31401,5.25,72044.5,-9.99,-10.89,-10.89,0,*5E
1517612729.35,31402,5.25,72044.5,-9.99,-10.89,-10.89,0,*5D
1517612730.59,31403,5.25,72046.0,-9.99,-10.97,-10.97,0,*5C
1517612731.83,31404,5.25,72046.0,-9.99,-10.89,-10.97,0,*54
1517612733.06,31405,5.25,72048.0,-9.99,-10.89,-10.89,0,*5A
1517612734.31,31406,5.25,72044.5,-9.99,-10.97,-10.97,0,*59
1517612735.52,31407,5.25,72048.0,-10.01,-10.89,-10.97,0,*6E
1517612736.74,31408,5.25,72044.0,-10.01,-10.89,-10.97,0,*61
1517612737.99,31409,5.25,72048.0,-9.99,-10.97,-10.97,0,*56
1517612739.21,31410,5.25,72044.5,-10.01,-10.97,-10.89,0,*68
1517612740.42,31411,5.25,72044.0,-10.01,-10.89,-10.89,0,*66
1517612741.66,31412,5.25,72044.3,-9.99,-10.97,-10.89,0,*53
1517612742.88,31413,5.25,72046.3,-10.01,-10.89,-10.97,0,*6B
1517612744.12,31414,5.25,72044.8,-9.99,-10.97,-10.89,0,*55
1517612745.35,31415,5.25,72048.8,-9.99,-10.89,-10.97,0,*54
1517612746.58,31416,5.25,72046.5,-10.01,-10.97,-10.89,0,*6E
1517612747.81,31417,5.25,72046.8,-9.99,-10.97,-10.89,0,*56
1517612749.05,31418,5.25,72042.3,-9.99,-10.89,-10.89,0,*56
1517612750.28,31419,5.25,72044.3,-9.99,-10.89,-10.89,0,*57
1517612751.5,31420,5.25,72044.5,-10.01,-10.89,-10.97,0,*6B
1517612752.72,31421,5.25,72044.3,-10.01,-10.97,-10.97,0,*65
1517612753.94,31422,5.25,72042.8,-10.01,-10.89,-10.89,0,*66
1517612755.18,31423,5.25,72042.3,-9.99,-10.97,-10.89,0,*51
1517612756.39,31424,5.25,72044.5,-10.01,-10.89,-10.89,0,*60
1517612757.61,31425,5.25,72046.5,-10.01,-10.89,-10.89,0,*61
1517612758.82,31426,5.25,72046.3,-10.01,-10.89,-10.89,0,*62
1517612760.05,31427,5.25,72046.3,-9.99,-10.89,-10.89,0,*5A
1517612761.27,31428,5.25,72044.0,-10.01,-10.89,-10.89,0,*6C
1517612762.48,31429,5.25,72046.0,-10.01,-10.89,-10.89,0,*6D
1517612763.7,31430,5.25,72046.0,-10.01,-10.89,-10.89,0,*65
1517612764.91,31431,5.25,72046.3,-10.01,-10.89,-10.89,0,*64
1517612766.14,31432,5.25,72048.3,-9.99,-10.89,-10.89,0,*5E
1517612767.37,31433,5.25,72044.3,-9.99,-10.85,-10.89,0,*53
1517612768.61,31434,5.25,72044.5,-9.99,-10.89,-10.89,0,*58
1517612769.84,31435,5.25,72048.5,-9.99,-10.89,-10.89,0,*59
1517612771.07,31436,5.25,72044.5,-9.99,-10.89,-10.89,0,*5A
1517612772.29,31437,5.25,72044.8,-10.01,-10.89,-10.89,0,*62
1517612773.5,31438,5.25,72050.0,-10.01,-10.89,-10.89,0,*6D
1517612774.74,31439,5.25,72048.3,-9.99,-10.89,-10.97,0,*5A
1517612775.97,31440,5.25,72048.0,-9.99,-10.89,-10.89,0,*5B
1517612777.2,31441,5.25,72042.0,-9.99,-10.89,-10.97,0,*55
1517612778.42,31442,5.25,72046.0,-10.01,-10.89,-10.89,0,*60
1517612779.63,31443,5.25,72044.5,-10.01,-10.89,-10.89,0,*61
1517612780.87,31444,5.25,72044.5,-9.99,-10.89,-10.97,0,*50
1517612782.11,31445,5.25,72040.8,-9.99,-10.97,-10.97,0,*5E
1517612783.34,31446,5.25,72044.5,-9.99,-10.89,-10.89,0,*5D
1517612784.58,31447,5.25,72044.5,-9.99,-10.97,-10.89,0,*53
1517612785.8,31448,5.25,72044.8,-10.01,-10.89,-10.97,0,*65
1517612787.02,31449,5.25,72046.3,-10.01,-10.89,-10.97,0,*64
1517612788.25,31450,5.25,72044.5,-9.99,-10.89,-10.89,0,*5A
1517612789.48,31451,5.25,72044.8,-9.99,-10.89,-10.89,0,*5B
1517612790.7,31452,5.25,72042.8,-10.01,-10.89,-10.89,0,*61
1517612791.94,31453,5.25,72048.3,-9.99,-10.97,-10.97,0,*59
1517612793.16,31454,5.25,72048.3,-10.01,-10.89,-10.89,0,*67
1517612794.38,31455,5.25,72046.8,-10.01,-10.97,-10.89,0,*69
1517612795.61,31456,5.25,72046.3,-9.99,-10.89,-10.89,0,*5C
1517612796.84,31457,5.25,72044.0,-9.99,-10.89,-10.89,0,*5D
1517612798.06,31458,5.25,72046.8,-10.01,-10.89,-10.97,0,*64
1517612799.27,31459,5.25,72042.8,-10.01,-10.89,-10.89,0,*6A
1517612800.51,31460,5.25,72048.5,-9.99,-10.89,-10.97,0,*56
1517612801.73,31461,5.25,72046.3,-10.01,-10.89,-10.89,0,*61
1517612802.94,31462,5.25,72046.0,-10.01,-10.89,-10.97,0,*6D
1517612804.16,31463,5.25,72046.3,-10.01,-10.89,-10.97,0,*6C
1517612805.38,31464,5.25,72050.8,-10.01,-10.89,-10.89,0,*64
1517612806.6,31465,5.25,72044.5,-10.01,-10.97,-10.97,0,*65
1517612807.85,31466,5.25,72048.3,-9.99,-10.97,-10.97,0,*5F
1517612809.06,31467,5.25,72046.8,-10.01,-10.89,-10.97,0,*68
1517612810.29,31468,5.25,72042.8,-10.01,-10.97,-10.89,0,*67
1517612811.5,31469,5.25,72044.8,-10.01,-10.89,-10.89,0,*69
1517612812.72,31470,5.25,72046.3,-10.01,-10.89,-10.89,0,*61
1517612813.93,31471,5.25,72048.0,-10.01,-10.89,-10.89,0,*60
1517612815.15,31472,5.25,72046.8,-10.01,-10.97,-10.89,0,*6C
1517612816.37,31473,5.25,72046.3,-10.01,-10.97,-10.89,0,*6D
1517612817.59,31474,5.25,72048.0,-10.01,-10.89,-10.97,0,*6A
1517612818.82,31475,5.25,72044.8,-9.99,-10.89,-10.89,0,*5D
1517612820.06,31476,5.25,72044.5,-9.99,-10.89,-10.97,0,*51
1517612821.29,31477,5.25,72044.8,-9.99,-10.89,-10.89,0,*5F
1517612822.53,31478,5.25,72046.0,-9.99,-10.89,-10.97,0,*5F
1517612823.74,31479,5.25,72048.3,-10.01,-10.89,-10.89,0,*68
1517612824.97,31480,5.25,72046.0,-9.99,-10.89,-10.89,0,*57
1517612826.19,31481,5.25,72046.5,-10.01,-10.89,-10.89,0,*6F
1517612827.4,31482,5.25,72044.8,-10.01,-10.89,-10.89,0,*6C
1517612828.64,31483,5.25,72046.8,-9.99,-10.89,-10.89,0,*54
1517612829.85,31484,5.25,72046.3,-10.01,-10.89,-10.89,0,*6A
1517612831.07,31485,5.25,72048.0,-10.01,-10.89,-10.89,0,*6B
1517612832.28,31486,5.25,72046.5,-10.01,-10.89,-10.89,0,*68
1517612833.5,31487,5.25,72048.0,-10.01,-10.89,-10.89,0,*69
1517612834.72,31488,5.25,72050.3,-10.01,-10.97,-10.89,0,*69
1517612835.93,31489,5.25,72046.8,-10.01,-10.97,-10.85,0,*64
1517612837.15,31490,5.25,72050.5,-10.01,-10.89,-10.97,0,*60
1517612838.37,31491,5.25,72050.0,-10.01,-10.89,-10.89,0,*6E
1517612839.58,31492,5.25,72050.3,-10.01,-10.89,-10.89,0,*6D
1517612840.79,31493,5.25,72046.5,-10.01,-10.89,-10.89,0,*6C
1517612842.01,31494,5.25,72048.3,-10.01,-10.89,-10.89,0,*6B
1517612843.22,31495,5.25,72050.0,-10.01,-10.89,-10.89,0,*6A
1517612844.45,31496,5.25,72048.8,-10.01,-10.97,-10.97,0,*69
1517612845.69,31497,5.25,72048.3,-9.99,-10.89,-10.97,0,*5E
1517612846.9,31498,5.25,72050.8,-10.01,-10.89,-10.89,0,*67
1517612848.12,31499,5.25,72050.5,-10.01,-10.89,-10.97,0,*69
1517612849.35,31500,5.25,72044.8,-9.99,-10.89,-10.89,0,*5E
1517612850.57,31501,5.25,72046.8,-10.01,-10.89,-10.89,0,*66
1517612851.78,31502,5.25,72050.5,-10.01,-10.89,-10.89,0,*65
1517612853.0,31503,5.25,72048.3,-10.01,-10.97,-10.89,0,*6B
1517612854.23,31504,5.25,72048.3,-10.01,-10.97,-10.89,0,*6C
1517612855.45,31505,5.25,72050.8,-10.01,-10.97,-10.97,0,*62
1517612856.67,31506,5.25,72050.3,-10.01,-10.89,-10.97,0,*6E
1517612857.89,31507,5.25,72050.8,-10.01,-10.89,-10.97,0,*6F
1517612859.11,31508,5.25,72048.3,-10.01,-10.89,-10.97,0,*60
1517612860.33,31509,5.25,72048.0,-10.01,-10.97,-10.89,0,*61
1517612861.55,31510,5.25,72050.0,-10.01,-10.89,-10.97,0,*69
1517612862.76,31511,5.25,72048.3,-10.01,-10.89,-10.89,0,*67
1517612863.98,31512,5.25,72048.8,-10.01,-10.89,-10.89,0,*64
1517612865.19,31513,5.25,72048.8,-10.01,-10.89,-10.89,0,*65
1517612866.41,31514,5.25,72048.5,-10.01,-10.89,-10.89,0,*62
1517612867.62,31515,5.25,72046.8,-10.01,-10.89,-10.89,0,*63
1517612868.84,31516,5.25,72050.5,-10.01,-10.97,-10.89,0,*6F
1517612870.06,31517,5.25,72050.0,-10.01,-10.89,-10.89,0,*61
1517612871.27,31518,5.25,72044.5,-10.01,-10.89,-10.89,0,*6E
1517612872.49,31519,5.25,72050.8,-10.01,-10.89,-10.89,0,*6F
1517612873.71,31520,5.25,72046.3,-10.01,-10.97,-10.89,0,*6A
1517612874.95,31521,5.25,72050.0,-10.03,-10.93,-10.93,0,*66
1517612876.17,31522,5.25,72048.8,-10.01,-10.89,-10.97,0,*68
1517612877.39,31523,5.25,72046.5,-10.01,-10.89,-10.97,0,*69
1517612878.61,31524,5.25,72048.0,-10.01,-10.89,-10.97,0,*6E
1517612879.83,31525,5.25,72050.0,-10.01,-10.89,-10.97,0,*6F
1517612881.04,31526,5.25,72050.8,-10.01,-10.89,-10.89,0,*63
1517612882.26,31527,5.31,72052.8,-10.01,-10.97,-10.89,0,*6D
1517612883.48,31528,5.25,72048.5,-10.01,-10.89,-11.01,0,*6C
1517612884.69,31529,5.25,72050.8,-10.01,-10.89,-10.89,0,*6C
1517612885.94,31530,5.25,72050.8,-10.03,-11.01,-11.01,0,*66
1517612887.18,31531,5.25,72046.8,-10.03,-11.01,-11.01,0,*67
1517612888.42,31532,5.25,72044.5,-10.03,-10.93,-11.01,0,*6E
1517612889.67,31533,5.25,72050.5,-10.03,-11.01,-10.93,0,*6F
1517612890.89,31534,5.25,72046.8,-10.01,-10.97,-11.01,0,*6E
1517612892.11,31535,5.25,72048.0,-10.01,-10.97,-11.01,0,*6F
1517612893.35,31536,5.25,72050.5,-10.03,-10.93,-11.01,0,*6A
1517612894.59,31537,5.25,72050.3,-10.03,-10.93,-11.01,0,*6B
1517612895.81,31538,5.25,72048.3,-10.01,-10.89,-10.97,0,*63